Previsão horária em Plotnikovo

Hoje, 8 Março, Segunda-feira

Tempo Temperatura Precipitação Vento Pressão Humidade
00:00 -11°C° 0 mm 4 m/s 725 mmHg 89%
01:00 -11°C° 0 mm 4 m/s 726 mmHg 87%
02:00 -11°C° 0 mm 4 m/s 726 mmHg 86%
03:00 -12°C° 0.1 mm 5 m/s 726 mmHg 87%
04:00 -13°C° 0.1 mm 5 m/s 727 mmHg 87%
05:00 -13°C° 0.1 mm 5 m/s 727 mmHg 88%
06:00 -13°C° 0 mm 5 m/s 728 mmHg 88%
07:00 -13°C° 0 mm 5 m/s 729 mmHg 88%
08:00 -12°C° 0 mm 4 m/s 730 mmHg 88%
09:00 -11°C° 0 mm 4 m/s 731 mmHg 85%
10:00 -11°C° 0 mm 4 m/s 731 mmHg 83%
11:00 -10°C° 0 mm 4 m/s 732 mmHg 80%
12:00 -10°C° 0 mm 4 m/s 733 mmHg 80%
13:00 -9°C° 0 mm 4 m/s 734 mmHg 80%
14:00 -9°C° 0 mm 4 m/s 734 mmHg 80%
15:00 -10°C° 0 mm 4 m/s 735 mmHg 82%
16:00 -11°C° 0 mm 4 m/s 735 mmHg 84%
17:00 -12°C° 0 mm 3 m/s 736 mmHg 87%
18:00 -13°C° 0 mm 3 m/s 737 mmHg 89%
19:00 -14°C° 0 mm 3 m/s 737 mmHg 91%
20:00 -15°C° 0 mm 3 m/s 738 mmHg 93%
21:00 -14°C° 0 mm 2 m/s 738 mmHg 94%
22:00 -15°C° 0 mm 2 m/s 739 mmHg 94%
23:00 -15°C° 0 mm 2 m/s 739 mmHg 95%

Amanhã, 9 Março, Terça-feira

Tempo Temperatura Precipitação Vento Pressão Humidade
00:00 -16°C° 0 mm 2 m/s 740 mmHg 96%
01:00 -17°C° 0 mm 2 m/s 740 mmHg 96%
02:00 -18°C° 0 mm 2 m/s 740 mmHg 97%
03:00 -18°C° 0 mm 2 m/s 741 mmHg 97%
04:00 -19°C° 0 mm 2 m/s 741 mmHg 97%
05:00 -20°C° 0 mm 2 m/s 741 mmHg 97%
06:00 -19°C° 0 mm 2 m/s 742 mmHg 95%
07:00 -19°C° 0 mm 2 m/s 742 mmHg 93%
08:00 -18°C° 0 mm 2 m/s 743 mmHg 92%
09:00 -17°C° 0 mm 2 m/s 743 mmHg 88%
10:00 -16°C° 0 mm 2 m/s 743 mmHg 84%
11:00 -14°C° 0 mm 2 m/s 743 mmHg 81%
12:00 -14°C° 0 mm 2 m/s 744 mmHg 78%
13:00 -13°C° 0 mm 2 m/s 744 mmHg 75%
14:00 -12°C° 0 mm 2 m/s 744 mmHg 73%
15:00 -13°C° 0 mm 2 m/s 744 mmHg 77%
16:00 -12°C° 0 mm 1 m/s 744 mmHg 81%
17:00 -13°C° 0 mm 1 m/s 744 mmHg 85%
18:00 -14°C° 0 mm 1 m/s 745 mmHg 87%
19:00 -15°C° 0 mm 1 m/s 745 mmHg 88%
20:00 -16°C° 0 mm 1 m/s 745 mmHg 90%
21:00 -16°C° 0 mm 1 m/s 746 mmHg 92%
22:00 -19°C° 0 mm 2 m/s 746 mmHg 93%
23:00 -19°C° 0 mm 2 m/s 746 mmHg 94%

Depois de amanhã, 10 Março, Quarta-feira

Tempo Temperatura Precipitação Vento Pressão Humidade
00:00 -19°C° 0 mm 2 m/s 746 mmHg 94%
01:00 -20°C° 0 mm 2 m/s 746 mmHg 94%
02:00 -20°C° 0 mm 2 m/s 746 mmHg 94%
03:00 -20°C° 0 mm 2 m/s 746 mmHg 94%
04:00 -21°C° 0 mm 2 m/s 746 mmHg 94%
05:00 -21°C° 0 mm 2 m/s 746 mmHg 94%
06:00 -21°C° 0 mm 2 m/s 747 mmHg 92%
07:00 -21°C° 0 mm 2 m/s 747 mmHg 91%
08:00 -21°C° 0 mm 2 m/s 748 mmHg 89%
09:00 -20°C° 0 mm 2 m/s 748 mmHg 85%
10:00 -18°C° 0 mm 2 m/s 748 mmHg 81%
11:00 -17°C° 0 mm 2 m/s 749 mmHg 77%
12:00 -16°C° 0 mm 2 m/s 749 mmHg 76%
13:00 -15°C° 0 mm 2 m/s 749 mmHg 74%
14:00 -14°C° 0 mm 2 m/s 749 mmHg 72%
15:00 -15°C° 0 mm 2 m/s 749 mmHg 76%
16:00 -14°C° 0 mm 1 m/s 749 mmHg 80%
17:00 -14°C° 0 mm 1 m/s 749 mmHg 84%
18:00 -16°C° 0 mm 1 m/s 750 mmHg 85%
19:00 -17°C° 0 mm 1 m/s 750 mmHg 86%
20:00 -18°C° 0 mm 1 m/s 750 mmHg 87%
21:00 -18°C° 0 mm 1 m/s 751 mmHg 88%
22:00 -19°C° 0 mm 1 m/s 751 mmHg 89%
23:00 -19°C° 0 mm 1 m/s 751 mmHg 90%

11 Março, Quinta-feira

Tempo Temperatura Precipitação Vento Pressão Humidade
00:00 -20°C° 0 mm 1 m/s 751 mmHg 90%
01:00 -20°C° 0 mm 1 m/s 751 mmHg 90%
02:00 -20°C° 0 mm 1 m/s 751 mmHg 91%
03:00 -21°C° 0 mm 1 m/s 751 mmHg 91%
04:00 -21°C° 0 mm 1 m/s 751 mmHg 91%
05:00 -21°C° 0 mm 1 m/s 751 mmHg 91%
06:00 -20°C° 0 mm 1 m/s 751 mmHg 90%
07:00 -19°C° 0 mm 1 m/s 752 mmHg 89%
08:00 -18°C° 0 mm 1 m/s 752 mmHg 87%
09:00 -18°C° 0 mm 2 m/s 751 mmHg 84%
10:00 -17°C° 0 mm 2 m/s 751 mmHg 80%
11:00 -15°C° 0 mm 2 m/s 751 mmHg 76%
12:00 -15°C° 0 mm 3 m/s 751 mmHg 75%
13:00 -14°C° 0 mm 3 m/s 751 mmHg 73%
14:00 -13°C° 0 mm 3 m/s 750 mmHg 72%
15:00 -14°C° 0 mm 3 m/s 750 mmHg 76%
16:00 -15°C° 0 mm 3 m/s 750 mmHg 79%
17:00 -15°C° 0 mm 3 m/s 749 mmHg 83%
18:00 -16°C° 0 mm 3 m/s 749 mmHg 83%
19:00 -18°C° 0 mm 4 m/s 749 mmHg 84%
20:00 -19°C° 0 mm 4 m/s 749 mmHg 85%
21:00 -19°C° 0 mm 4 m/s 749 mmHg 86%
22:00 -19°C° 0 mm 4 m/s 748 mmHg 87%
23:00 -20°C° 0 mm 4 m/s 748 mmHg 89%

12 Março, Sexta-feira

Tempo Temperatura Precipitação Vento Pressão Humidade
00:00 -20°C° 0 mm 4 m/s 747 mmHg 90%
01:00 -20°C° 0 mm 4 m/s 747 mmHg 91%
02:00 -21°C° 0 mm 5 m/s 746 mmHg 92%
03:00 -21°C° 0 mm 5 m/s 746 mmHg 93%
04:00 -20°C° 0 mm 5 m/s 745 mmHg 93%
05:00 -20°C° 0 mm 5 m/s 744 mmHg 93%
06:00 -20°C° 0 mm 6 m/s 744 mmHg 90%
07:00 -18°C° 0 mm 6 m/s 743 mmHg 87%
08:00 -18°C° 0 mm 7 m/s 742 mmHg 84%
09:00 -15°C° 0 mm 7 m/s 742 mmHg 83%
10:00 -14°C° 0 mm 7 m/s 741 mmHg 83%
11:00 -13°C° 0 mm 8 m/s 741 mmHg 82%
12:00 -12°C° 0.3 mm 8 m/s 740 mmHg 85%
13:00 -11°C° 0.3 mm 8 m/s 739 mmHg 88%
14:00 -10°C° 0.3 mm 8 m/s 738 mmHg 90%
15:00 -8°C° 0.3 mm 8 m/s 738 mmHg 90%
16:00 -8°C° 0.3 mm 8 m/s 737 mmHg 91%
17:00 -8°C° 0.3 mm 8 m/s 737 mmHg 91%
18:00 -8°C° 0.1 mm 7 m/s 736 mmHg 91%
19:00 -8°C° 0.1 mm 7 m/s 736 mmHg 91%
20:00 -8°C° 0.1 mm 6 m/s 735 mmHg 91%
21:00 -6°C° 0.2 mm 6 m/s 735 mmHg 92%
22:00 -6°C° 0.2 mm 5 m/s 734 mmHg 93%
23:00 -6°C° 0.2 mm 5 m/s 734 mmHg 94%

13 Março, Sábado

Tempo Temperatura Precipitação Vento Pressão Humidade
00:00 -6°C° 0.4 mm 5 m/s 733 mmHg 95%
01:00 -4°C° 0.4 mm 4 m/s 733 mmHg 96%
02:00 -4°C° 0.4 mm 4 m/s 733 mmHg 96%
03:00 -3°C° 0.1 mm 4 m/s 733 mmHg 95%
04:00 -2°C° 0.1 mm 4 m/s 733 mmHg 94%
05:00 -2°C° 0.1 mm 4 m/s 733 mmHg 92%
06:00 -2°C° 0 mm 4 m/s 734 mmHg 92%
07:00 -2°C° 0 mm 5 m/s 734 mmHg 91%
08:00 -2°C° 0 mm 5 m/s 734 mmHg 90%
09:00 -2°C° 0.1 mm 5 m/s 734 mmHg 92%
10:00 -1°C° 0.1 mm 5 m/s 734 mmHg 95%
11:00 -1°C° 0.1 mm 5 m/s 735 mmHg 97%
12:00 -1°C° 0 mm 5 m/s 734 mmHg 96%
13:00 -1°C° 0 mm 5 m/s 734 mmHg 95%
14:00 0°C° 0 mm 5 m/s 734 mmHg 94%
15:00 0°C° 0 mm 5 m/s 734 mmHg 94%
16:00 0°C° 0 mm 5 m/s 733 mmHg 95%
17:00 -1°C° 0 mm 5 m/s 733 mmHg 95%
18:00 -1°C° 0.2 mm 5 m/s 733 mmHg 95%
19:00 -2°C° 0.2 mm 6 m/s 733 mmHg 95%
20:00 -2°C° 0.2 mm 6 m/s 733 mmHg 96%
21:00 -2°C° 0.5 mm 6 m/s 733 mmHg 96%
22:00 -1°C° 0.5 mm 5 m/s 733 mmHg 96%
23:00 -1°C° 0.5 mm 5 m/s 732 mmHg 97%
Mostrar mais

Necessitamos do seu Consentimento

A Meteoprog e os seus Fornecedores de Serviços podem armazenar e aceder a dados pessoais como cookies, identificadores do dispositivo ou outras tecnologias semelhantes existentes no seu dispositivo e processar estes dados para personalizar conteúdos e anúncios, assim como funcionalidades nas redes sociais e análise de tráfego.

  • Armazenar e/ou aceder a informações no seu dispositivo

    Os cookies, identificadores do dispositivo ou outras informações podem ser armazenados ou acedidos no seu dispositivo, para os fins acima indicados.

  • Anúncios e conteúdos personalizados, medição de anúncios e conteúdos, dados sobre o público-alvo e desenvolvimento de produtos

    Os anúncios e os conteúdos podem ser personalizados com base num perfil. Podem ser adicionados dados adicionais para uma maior personalização dos anúncios e dos conteúdos. A eficácia dos anúncios e dos conteúdos pode ser medida. Podem ser obtidas informações sobre o público que visualizou os anúncios e os conteúdos. Estes dados podem ser usados para desenvolver ou melhorar sistemas, softwares ou a experiência do utilizador.

Ao clicar em "Eu concordo”, permitirá o uso de cookies, identificadores do dispositivo e web beacons mencionados ou outras tecnologias semelhantes. As configurações do navegador do seu dispositivo podem ser alteradas.

Para certos fins, podem ser invocados interesses legítimos ao invés de consentimento. Pode ler mais informação sobre este assunto na nossa Política de Privacidade e Cookies.